GW5236 Weather Reports


Display with metric or nautical units.
time (UTC)temp
F
wind
direction
speed
MPH
gust
MPH
rain 1hr
in
rain 24hr
in
rain mn
in
humidity
%
barometer
mb
20260503021000 35 267 0.0 0.0 0.00 0.00 0.00 83 1018.0
20260503020505 35 267 0.0 0.0 0.00 0.00 0.00 82 1018.0
20260503020007 36 267 0.0 0.0 0.00 0.00 0.00 81 1018.0
20260503015501 36 267 0.0 0.0 0.00 0.00 0.00 80 1017.9
20260503015001 36 267 0.0 0.0 0.00 0.00 0.00 79 1017.9
20260503014515 36 267 0.0 0.0 0.00 0.00 0.00 78 1017.8
20260503014004 37 267 0.0 0.0 0.00 0.00 0.00 76 1017.8
20260503013504 37 267 0.0 0.0 0.00 0.00 0.00 74 1017.8
20260503013018 38 267 0.0 0.0 0.00 0.00 0.00 73 1017.8
20260503012010 39 267 0.0 0.0 0.00 0.00 0.00 70 1017.8
20260503011519 39 267 0.0 0.0 0.00 0.00 0.00 69 1017.7
20260503010508 40 267 0.0 0.0 0.00 0.00 0.00 68 1017.6
20260503010021 41 267 0.0 0.0 0.00 0.00 0.00 69 1017.5
20260503005506 42 267 0.0 0.0 0.00 0.00 0.00 64 1017.5
20260503005004 42 267 0.0 0.0 0.00 0.00 0.00 61 1017.4
20260503004510 42 267 0.0 0.0 0.00 0.00 0.00 60 1017.5
20260503004004 43 267 0.0 0.0 0.00 0.00 0.00 59 1017.4
20260503003504 43 267 0.0 2.0 0.00 0.00 0.00 59 1017.4
20260503003013 43 267 0.0 2.0 0.00 0.00 0.00 57 1017.4
20260503002504 43 267 0.0 2.0 0.00 0.00 0.00 57 1017.3
20260503002005 43 267 1.0 2.0 0.00 0.00 0.00 56 1017.3
20260503001516 43 294 0.0 2.0 0.00 0.00 0.00 56 1017.2
20260503001004 44 294 1.0 4.0 0.00 0.00 0.00 56 1017.1
20260503000024 44 273 1.0 2.0 0.00 0.00 0.00 56 1017.1
20260502235504 44 271 0.0 3.0 0.00 0.00 0.00 56 1017.1
20260502235008 44 274 0.0 3.0 0.00 0.00 0.00 56 1017.1
20260502234505 44 284 2.0 3.0 0.00 0.00 0.00 55 1017.1
20260502234004 44 352 1.0 3.0 0.00 0.00 0.00 56 1017.1
20260502233505 44 293 0.0 6.0 0.00 0.00 0.00 56 1017.0
20260502233008 44 263 2.0 7.0 0.00 0.00 0.00 55 1017.0
20260502231518 44 297 0.0 4.0 0.00 0.00 0.00 55 1017.1
20260502230020 45 262 3.0 6.0 0.00 0.00 0.00 53 1017.0
20260502224523 45 289 1.0 3.0 0.00 0.00 0.00 54 1017.0
20260502224008 45 306 1.0 6.0 0.00 0.00 0.00 53 1017.1
20260502223511 45 256 3.0 6.0 0.00 0.00 0.00 52 1017.1
20260502223007 45 5 1.0 5.0 0.00 0.00 0.00 53 1017.1
20260502222006 45 277 1.0 8.0 0.00 0.00 0.00 54 1017.1
20260502220015 45 277 2.0 6.0 0.00 0.00 0.00 50 1017.0
20260502214528 46 262 1.0 3.0 0.00 0.00 0.00 52 1017.1
20260502213022 46 350 3.0 10.0 0.00 0.00 0.00 50 1016.9
20260502212510 46 25 1.0 10.0 0.00 0.00 0.00 52 1016.9
20260502212013 45 316 2.0 8.0 0.00 0.00 0.00 52 1016.8
20260502211007 45 352 3.0 7.0 0.00 0.00 0.00 50 1016.8
20260502204518 46 274 3.0 8.0 0.00 0.00 0.00 50 1016.8
20260502204006 46 269 3.0 8.0 0.00 0.00 0.00 49 1016.8
20260502201524 46 326 1.0 6.0 0.00 0.00 0.00 53 1016.9
20260502201010 46 258 2.0 9.0 0.00 0.00 0.00 51 1016.8
20260502200009 46 236 1.0 6.0 0.00 0.00 0.00 53 1017.0
20260502194515 45 250 4.0 10.0 0.00 0.00 0.00 50 1017.1
20260502193022 46 309 2.0 9.0 0.00 0.00 0.00 51 1017.3
20260502190510 46 352 3.0 11.0 0.00 0.00 0.00 53 1017.2
20260502190030 46 324 4.0 11.0 0.00 0.00 0.00 49 1017.2
20260502185508 46 309 5.0 10.0 0.00 0.00 0.00 46 1017.2
20260502184516 47 252 4.0 10.0 0.00 0.00 0.00 48 1017.3
20260502183508 47 300 2.0 11.0 0.00 0.00 0.00 53 1017.3
20260502183020 47 246 5.0 10.0 0.00 0.00 0.00 50 1017.3
20260502182508 47 292 4.0 7.0 0.00 0.00 0.00 50 1017.3
20260502180503 47 319 1.0 7.0 0.00 0.00 0.00 52 1017.3
20260502164013 44 319 3.0 8.0 0.00 0.00 0.00 56 1017.8
20260502163018 44 248 5.0 11.0 0.00 0.00 0.00 57 1017.8
20260502152007 46 360 3.0 9.0 0.00 0.00 0.00 58 1017.6
20260502151518 46 225 3.0 11.0 0.00 0.00 0.00 60 1017.7
20260502151005 45 299 4.0 11.0 0.00 0.00 0.00 63 1017.7
20260502130507 40 281 4.0 8.0 0.00 0.01 0.00 74 1017.5
20260502123508 38 290 0.0 6.0 0.00 0.01 0.00 78 1017.3
20260502122505 37 296 1.0 6.0 0.00 0.02 0.00 77 1017.2
20260502121509 36 279 1.0 4.0 0.00 0.02 0.00 79 1017.1
20260502120505 35 283 2.0 5.0 0.00 0.02 0.00 80 1017.2
20260502115507 34 265 1.0 4.0 0.00 0.02 0.00 83 1017.1
20260502114520 33 240 1.0 4.0 0.00 0.02 0.00 85 1017.0
20260502114009 33 245 1.0 3.0 0.00 0.02 0.00 86 1017.1
20260502113509 32 259 1.0 3.0 0.00 0.02 0.00 88 1017.0
20260502113022 31 250 1.0 2.0 0.00 0.02 0.00 89 1017.0
20260502112508 31 267 0.0 2.0 0.00 0.02 0.00 89 1017.0
20260502112008 30 232 0.0 2.0 0.00 0.02 0.00 89 1016.9
20260502111508 30 232 0.0 2.0 0.00 0.02 0.00 88 1017.1
20260502110014 30 232 0.0 0.0 0.00 0.02 0.00 86 1017.1
20260502104529 30 232 0.0 2.0 0.00 0.02 0.00 86 1016.9
20260502103022 31 230 0.0 2.0 0.00 0.02 0.00 85 1016.8
20260502102508 31 230 0.0 2.0 0.00 0.02 0.00 85 1016.8
20260502102008 31 230 0.0 2.0 0.00 0.02 0.00 85 1016.7
20260502101524 31 230 0.0 2.0 0.00 0.02 0.00 86 1016.8
20260502101010 31 241 0.0 2.0 0.00 0.02 0.00 86 1016.7
20260502100510 31 241 0.0 2.0 0.00 0.02 0.00 87 1016.7
20260502091508 30 251 0.0 0.0 0.00 0.02 0.00 91 1016.8
20260502091004 30 251 0.0 2.0 0.00 0.02 0.00 91 1016.8
20260502090503 31 251 0.0 2.0 0.00 0.02 0.00 92 1016.8
20260502071001 32 236 0.0 0.0 0.00 0.02 0.00 88 1016.5
20260502070501 33 236 0.0 0.0 0.00 0.02 0.00 88 1016.5
20260502070013 33 236 0.0 0.0 0.00 0.02 0.00 87 1016.6
20260502065500 33 236 0.0 2.0 0.00 0.02 0.00 87 1016.6
20260502065002 33 236 0.0 2.0 0.00 0.02 0.00 88 1016.7
20260502064524 34 236 0.0 2.0 0.00 0.02 0.00 88 1016.7
20260502064004 34 236 0.0 2.0 0.00 0.02 0.00 89 1016.7
20260502063507 33 236 0.0 2.0 0.00 0.02 0.00 90 1016.8
20260502063016 33 261 0.0 3.0 0.00 0.02 0.00 92 1016.7
20260502062505 33 252 0.0 3.0 0.00 0.02 0.00 94 1016.7
20260502062009 33 279 0.0 2.0 0.00 0.02 0.00 95 1016.7
20260502061519 32 263 0.0 2.0 0.00 0.02 0.00 95 1016.7
20260502061008 32 263 0.0 2.0 0.00 0.02 0.00 95 1016.8
20260502060508 32 238 0.0 0.0 0.00 0.02 0.00 94 1016.8
20260502055501 32 238 0.0 0.0 0.00 0.02 0.00 94 1016.8
20260502055001 32 238 0.0 0.0 0.00 0.02 0.00 94 1017.0
20260502054507 32 238 0.0 0.0 0.00 0.02 0.00 94 1016.9
20260502054004 32 238 0.0 0.0 0.00 0.02 0.00 94 1017.0
20260502053505 32 238 0.0 0.0 0.00 0.02 0.00 94 1017.2
20260502053012 32 238 0.0 0.0 0.00 0.02 0.00 94 1017.1
20260502052507 32 238 0.0 0.0 0.00 0.02 0.00 94 1017.1
20260502052005 33 238 0.0 0.0 0.00 0.02 0.00 94 1017.1
20260502051516 33 238 0.0 0.0 0.00 0.02 0.00 94 1017.0
20260502051005 33 238 0.0 0.0 0.00 0.02 0.00 94 1017.1
20260502050506 33 238 0.0 0.0 0.00 0.02 0.00 94 1017.1
20260502050022 33 238 0.0 0.0 0.00 0.02 0.00 94 1017.2
20260502045506 33 238 0.0 0.0 0.00 0.02 0.00 93 1017.2
20260502045011 33 238 0.0 0.0 0.00 0.02 0.00 93 1017.3
20260502044524 33 238 0.0 0.0 0.00 0.02 0.00 93 1017.2
20260502044002 33 238 0.0 0.0 0.00 0.02 0.00 93 1017.2
20260502043502 34 238 0.0 0.0 0.00 0.02 0.00 93 1017.3
20260502043015 34 238 0.0 0.0 0.00 0.02 0.00 93 1017.2
20260502042507 34 238 0.0 0.0 0.00 0.02 0.00 93 1017.1
20260502042005 34 238 0.0 0.0 0.00 0.02 0.00 93 1017.2
20260502041511 35 238 0.0 0.0 0.00 0.02 0.00 93 1017.2
20260502041005 35 238 0.0 2.0 0.00 0.02 0.00 93 1017.2
20260502040509 35 238 0.0 2.0 0.00 0.02 0.00 93 1017.0
20260502040023 35 238 0.0 2.0 0.00 0.02 0.00 93 1017.1
20260502035509 35 238 0.0 2.0 0.00 0.02 0.02 93 1017.1
20260502035009 35 238 0.0 2.0 0.00 0.02 0.02 92 1017.0
20260502034527 35 238 0.0 2.0 0.00 0.02 0.02 92 1017.1
20260502034009 36 238 0.0 0.0 0.00 0.02 0.02 92 1017.2
20260502033507 36 238 0.0 0.0 0.00 0.02 0.02 92 1017.2
20260502033026 36 238 0.0 1.0 0.00 0.02 0.02 92 1017.1
20260502032502 36 238 0.0 2.0 0.00 0.02 0.02 92 1017.3
20260502032002 37 238 0.0 2.0 0.00 0.02 0.02 93 1017.2
20260502031514 37 290 0.0 2.0 0.00 0.02 0.02 92 1017.2
20260502031005 37 290 0.0 2.0 0.00 0.02 0.02 92 1017.2
20260502030506 37 290 0.0 2.0 0.00 0.02 0.02 92 1017.2
20260502030018 37 290 0.0 2.0 0.00 0.02 0.02 91 1017.2
20260502025504 37 290 0.0 1.0 0.00 0.02 0.02 91 1017.2
20260502025005 38 290 0.0 2.0 0.00 0.02 0.02 91 1017.2
20260502024519 38 290 0.0 2.0 0.00 0.02 0.02 91 1017.1
20260502024008 38 290 0.0 2.0 0.00 0.02 0.02 91 1017.0
20260502023508 38 290 0.0 2.0 0.00 0.02 0.02 90 1016.9
20260502023022 38 290 0.0 1.0 0.00 0.02 0.02 90 1016.8
20260502022513 39 290 0.0 2.0 0.00 0.02 0.02 90 1016.8
20260502022014 39 290 0.0 2.0 0.00 0.02 0.02 89 1016.6
20260502021524 39 290 0.0 2.0 0.00 0.02 0.02 88 1016.5